Weather History for Franklin, NC

Change the Weather History Date:

Sunday, January 6, 2013

  Actual Average (KTOC) Record (KTOC)
Temperature  
Mean Temperature 44 °F -  
Max Temperature 51 °F 50 °F 45 °F (2014)
Min Temperature 36 °F 32 °F 12 °F (2014)
Degree Days  
Heating Degree Days 22    
Moisture  
Dew Point 33 °F    
Average Humidity 75    
Maximum Humidity 97    
Minimum Humidity 49    
Precipitation  
Precipitation 0.01 in - - ()
Sea Level Pressure  
Sea Level Pressure 30.15 in    
Wind  
Wind Speed 3 mph (NW)    
Max Wind Speed 14 mph    
Max Gust Speed 28 mph    
Visibility 9 miles    
Events Rain    
Averages and records for this station are not official NWS values.
T = Trace of Precipitation, MM = Missing Value Source: NWS Daily Summary

Daily Weather History Graph

Daily Weather History Graph

Search for Another Location

Airport:

Trip Planner

Search our weather history database for the weather conditions in past years. The results will help you decide how hot, cold, wet, or windy it might be!

Date:

Astronomy

Jan. 06, 2013 Rise Set
Actual Time 7:42 AM EST 5:36 PM EST
Civil Twilight 7:14 AM EST 6:04 PM EST
Nautical Twilight 6:43 AM EST 6:36 PM EST
Astronomical Twilight 6:12 AM EST 7:07 PM EST
Moon 2:01 AM EST (1/6) 12:59 PM EST (1/6)
Length of Visible Light 10h 49m
Length of Day
9h 53m
Waning Crescent, 33% of the Moon is Illuminated
Jan 6
Waning Crescent
Jan 11
New
Jan 18
First Quarter
Jan 26
Full
Feb 3
Last Quarter

Hourly Weather History & Observations

Time (EST) Temp. Windchill Dew Point Humidity Pressure Visibility Wind Dir Wind Speed Gust Speed Precip Events Conditions
12:15 AM 38.3 °F - 34.7 °F 87% 30.21 in 10.0 mi Calm Calm - N/A   Overcast
12:35 AM 38.1 °F - 34.3 °F 86% 30.21 in 10.0 mi Calm Calm - N/A   Overcast
12:55 AM 37.9 °F - 34.9 °F 89% 30.21 in 10.0 mi Calm Calm - N/A   Overcast
1:15 AM 38.3 °F - 34.7 °F 87% 30.21 in 10.0 mi Calm Calm - N/A   Overcast
1:35 AM 37.8 °F - 34.7 °F 89% 30.21 in 10.0 mi Calm Calm - N/A   Overcast
1:55 AM 37.6 °F - 34.7 °F 89% 30.21 in 7.0 mi Calm Calm - N/A Rain Rain
2:15 AM 37.6 °F - 35.2 °F 91% 30.21 in 7.0 mi Calm Calm - N/A   Light Drizzle
2:35 AM 37.6 °F - 35.6 °F 93% 30.20 in 5.0 mi Calm Calm - N/A Rain Light Rain
2:55 AM 37.4 °F - 35.6 °F 93% 30.20 in 5.0 mi Calm Calm - 0.01 in Rain Rain
3:15 AM 37.4 °F - 35.6 °F 93% 30.19 in 10.0 mi Calm Calm - N/A Rain Light Rain
3:35 AM 37.4 °F - 35.6 °F 93% 30.18 in 5.0 mi Calm Calm - N/A Rain Light Rain
3:55 AM 36.9 °F - 35.4 °F 95% 30.18 in 4.0 mi Calm Calm - N/A Rain Light Rain
4:15 AM 36.5 °F - 35.2 °F 95% 30.16 in 7.0 mi Calm Calm - N/A   Overcast
4:35 AM 36.9 °F 34.3 °F 35.8 °F 96% 30.16 in 7.0 mi West 3.5 mph - N/A   Overcast
4:55 AM 36.9 °F 34.3 °F 35.8 °F 96% 30.15 in 10.0 mi West 3.5 mph - N/A   Overcast
5:15 AM 36.9 °F - 35.8 °F 96% 30.15 in 4.0 mi Calm Calm - N/A Rain Light Rain
5:35 AM 37.0 °F - 36.0 °F 96% 30.14 in 4.0 mi Calm Calm - N/A Rain Light Rain
5:55 AM 37.4 °F - 36.1 °F 95% 30.14 in 5.0 mi Calm Calm - N/A   Overcast
6:15 AM 37.2 °F - 36.1 °F 96% 30.14 in 7.0 mi Calm Calm - N/A   Overcast
6:35 AM 37.2 °F - 36.0 °F 95% 30.15 in 5.0 mi Calm Calm - N/A   Overcast
6:55 AM 36.9 °F - 35.8 °F 96% 30.15 in 10.0 mi Calm Calm - N/A   Overcast
7:15 AM 36.9 °F - 36.0 °F 97% 30.16 in 10.0 mi Calm Calm - N/A   Overcast
7:35 AM 36.9 °F - 36.0 °F 97% 30.17 in 10.0 mi Calm Calm - N/A   Overcast
7:55 AM 36.7 °F - 35.8 °F 97% 30.16 in 10.0 mi Calm Calm - N/A   Overcast
8:15 AM 36.9 °F 34.3 °F 36.0 °F 97% 30.16 in 10.0 mi ENE 3.5 mph - N/A   Overcast
8:35 AM 37.4 °F - 36.1 °F 95% 30.16 in 10.0 mi Calm Calm - N/A   Overcast
8:55 AM 37.4 °F - 36.1 °F 95% 30.17 in 10.0 mi Calm Calm - N/A   Mostly Cloudy
9:35 AM 37.4 °F - 36.5 °F 97% 30.16 in 10.0 mi Calm Calm - N/A   Clear
9:55 AM 39.2 °F - 37.8 °F 95% 30.16 in 10.0 mi Calm Calm - N/A   Scattered Clouds
10:15 AM 40.6 °F - 37.6 °F 89% 30.17 in 10.0 mi Calm Calm - N/A   Clear
10:35 AM 43.0 °F 40.3 °F 37.2 °F 80% 30.17 in 10.0 mi NW 4.6 mph - N/A   Scattered Clouds
10:55 AM 45.1 °F 40.8 °F 37.8 °F 75% 30.17 in 10.0 mi NW 8.1 mph - N/A   Mostly Cloudy
11:15 AM 45.3 °F 44.0 °F 35.1 °F 67% 30.15 in 10.0 mi NW 3.5 mph - N/A   Scattered Clouds
11:35 AM 46.4 °F 42.9 °F 34.0 °F 62% 30.14 in 10.0 mi North 6.9 mph - N/A   Scattered Clouds
11:55 AM 46.4 °F 42.9 °F 34.0 °F 62% 30.14 in 10.0 mi NNW 6.9 mph - N/A   Scattered Clouds
12:35 PM 47.7 °F - 34.0 °F 59% 30.11 in 10.0 mi North 8.1 mph - N/A   Clear
12:55 PM 48.2 °F - 33.6 °F 57% 30.10 in 10.0 mi NW 5.8 mph - N/A   Clear
1:15 PM 49.3 °F - 33.6 °F 55% 30.08 in 10.0 mi North 4.6 mph - N/A   Clear
1:35 PM 50.0 °F - 32.9 °F 52% 30.07 in 10.0 mi NNW 4.6 mph - N/A   Clear
1:55 PM 51.1 °F - 32.7 °F 50% 30.07 in 10.0 mi NW 10.4 mph - N/A   Clear
2:15 PM 50.2 °F - 32.2 °F 50% 30.06 in 10.0 mi NW 8.1 mph - N/A   Clear
2:35 PM 50.4 °F - 32.0 °F 49% 30.06 in 10.0 mi NW 6.9 mph - N/A   Clear
2:55 PM 50.2 °F - 32.0 °F 50% 30.06 in 10.0 mi NW 6.9 mph - N/A   Clear
3:15 PM 49.6 °F - 32.0 °F 51% 30.07 in 10.0 mi NW 10.4 mph 17.3 mph N/A   Clear
3:35 PM 48.4 °F - 32.4 °F 54% 30.07 in 10.0 mi NW 12.7 mph 18.4 mph N/A   Clear
3:55 PM 48.2 °F - 32.0 °F 54% 30.08 in 10.0 mi NW 13.8 mph - N/A   Clear
4:15 PM 46.6 °F - 31.6 °F 56% 30.08 in 10.0 mi NW 10.4 mph 18.4 mph N/A   Clear
4:35 PM 45.5 °F 40.8 °F 31.3 °F 58% 30.09 in 10.0 mi NNW 9.2 mph - N/A   Clear
4:55 PM 43.9 °F 39.9 °F 30.4 °F 59% 30.09 in 10.0 mi NNW 6.9 mph - N/A   Clear
5:15 PM 42.4 °F 40.7 °F 30.0 °F 61% 30.09 in 10.0 mi West 3.5 mph - N/A   Clear
5:35 PM 41.0 °F 38.0 °F 29.8 °F 64% 30.10 in 10.0 mi WNW 4.6 mph - N/A   Clear
5:55 PM 40.1 °F 36.9 °F 29.7 °F 66% 30.11 in 10.0 mi WNW 4.6 mph - N/A   Clear
6:15 PM 40.6 °F 36.7 °F 29.5 °F 64% 30.12 in 10.0 mi NNW 5.8 mph - N/A   Clear
6:35 PM 40.1 °F 33.6 °F 28.0 °F 62% 30.14 in 10.0 mi NNW 10.4 mph 17.3 mph N/A   Clear
6:55 PM 39.7 °F 32.3 °F 27.7 °F 62% 30.16 in 10.0 mi NW 12.7 mph 27.6 mph N/A   Clear
7:15 PM 39.6 °F 32.5 °F 27.5 °F 62% 30.16 in 10.0 mi NW 11.5 mph 20.7 mph N/A   Clear
7:35 PM 39.6 °F 34.7 °F 28.0 °F 63% 30.16 in 10.0 mi WNW 6.9 mph - N/A   Scattered Clouds
7:55 PM 39.6 °F 34.0 °F 28.2 °F 64% 30.16 in 10.0 mi NW 8.1 mph - N/A   Scattered Clouds
8:15 PM 39.2 °F 33.6 °F 28.4 °F 65% 30.16 in 10.0 mi WNW 8.1 mph - N/A   Clear
8:35 PM 39.4 °F 37.2 °F 28.0 °F 64% 30.17 in 10.0 mi NW 3.5 mph - N/A   Scattered Clouds
8:55 PM 39.4 °F 36.1 °F 28.2 °F 64% 30.17 in 10.0 mi ENE 4.6 mph - N/A   Overcast
9:15 PM 40.5 °F 35.1 °F 28.4 °F 62% 30.18 in 10.0 mi WNW 8.1 mph 17.3 mph N/A   Overcast
9:35 PM 40.5 °F 35.1 °F 27.7 °F 60% 30.19 in 10.0 mi WNW 8.1 mph - N/A   Overcast
9:55 PM 40.6 °F 37.5 °F 27.9 °F 60% 30.19 in 10.0 mi NW 4.6 mph - N/A   Overcast
10:15 PM 40.1 °F 36.9 °F 28.2 °F 63% 30.20 in 10.0 mi WNW 4.6 mph - N/A   Overcast
10:35 PM 39.7 °F 35.6 °F 27.9 °F 63% 30.21 in 10.0 mi West 5.8 mph - N/A   Mostly Cloudy
11:35 PM 39.4 °F 33.8 °F 26.6 °F 60% 30.23 in 10.0 mi NW 8.1 mph - N/A   Mostly Cloudy
11:55 PM 38.5 °F 32.7 °F 26.2 °F 61% 30.22 in 10.0 mi NW 8.1 mph - N/A   Scattered Clouds